DL3NBY Weather Reports


Display with metric or nautical units.
time (UTC)temp
F
wind
direction
speed
MPH
gust
MPH
rain 1hr
in
rain 24hr
in
rain mn
in
humidity
%
barometer
mb
20260506051054 53 0.0 1.0 0.00 0.52 0.04 99 1005.0
20260506045048 52 0.0 2.0 0.00 0.52 0.04 99 1005.1
20260506043041 52 217 1.0 3.0 0.01 0.52 0.04 99 1004.9
20260506042038 52 201 1.0 3.0 0.01 0.52 0.04 99 1004.8
20260506041055 51 0.0 2.0 0.01 0.52 0.04 99 1004.9
20260506040111 52 180 0.0 2.0 0.01 0.52 0.04 99 1004.8
20260506035029 52 180 0.0 2.0 0.01 0.52 0.04 99 1004.7
20260506034046 52 180 0.0 3.0 0.00 0.51 0.02 99 1004.8
20260506033022 52 188 1.0 4.0 0.00 0.51 0.02 99 1004.7
20260506032039 52 180 0.0 2.0 0.00 0.51 0.02 99 1004.7
20260506031016 53 180 0.0 2.0 0.00 0.51 0.02 99 1004.7
20260506030113 53 158 0.0 3.0 0.00 0.51 0.02 99 1004.8
20260506023124 53 0.0 0.0 0.00 0.51 0.02 99 1004.8
20260506021057 53 0.0 0.0 0.00 0.52 0.02 99 1004.9
20260506020054 53 0.0 0.0 0.00 0.52 0.02 99 1004.9
20260506015050 53 148 0.0 2.0 0.00 0.52 0.02 99 1004.9
20260506014048 53 0.0 0.0 0.00 0.52 0.02 99 1004.9
20260506013044 53 0.0 1.0 0.00 0.52 0.02 99 1005.0
20260506012041 54 0.0 0.0 0.02 0.52 0.02 99 1005.1
20260506011038 54 180 0.0 2.0 0.02 0.52 0.02 99 1005.2
20260506010037 54 0.0 2.0 0.02 0.52 0.02 99 1005.1
20260506005052 54 243 0.0 3.0 0.02 0.52 0.02 99 1005.2
20260506004029 54 180 1.0 2.0 0.02 0.52 0.02 99 1005.4
20260506003025 54 211 2.0 4.0 0.02 0.52 0.02 99 1005.5
20260506002102 54 270 0.0 2.0 0.00 0.50 0.00 99 1005.6
20260506001019 54 218 1.0 2.0 0.00 0.50 0.00 99 1005.6
20260506000016 54 225 0.0 2.0 0.00 0.50 0.00 99 1005.6
20260505235113 54 180 0.0 3.0 0.00 0.50 0.00 99 1005.7
20260505234109 54 180 0.0 2.0 0.00 0.50 0.00 99 1005.8
20260505233107 54 216 1.0 4.0 0.00 0.50 0.00 99 1005.9
20260505231100 54 233 2.0 3.0 0.00 0.50 0.00 99 1005.7
20260505225054 54 180 0.0 3.0 0.00 0.50 0.00 99 1005.8
20260505222045 52 0.0 2.0 0.00 0.50 0.00 99 1005.7
20260505215055 54 0.0 0.0 0.00 0.50 0.50 99 1005.6
20260505214032 54 180 1.0 3.0 0.00 0.50 0.50 99 1005.7
20260505213029 55 0.0 0.0 0.00 0.50 0.50 99 1005.7
20260505212045 54 0.0 0.0 0.00 0.50 0.50 99 1006.0
20260505211022 54 0.0 0.0 0.00 0.50 0.50 99 1006.1
20260505210019 54 0.0 0.0 0.00 0.50 0.50 99 1006.0
20260505205016 54 0.0 0.0 0.00 0.50 0.50 99 1005.7
20260505204113 55 0.0 0.0 0.00 0.50 0.50 99 1005.7
20260505203110 55 195 0.0 3.0 0.01 0.50 0.50 99 1005.5
20260505202107 55 0.0 2.0 0.01 0.50 0.50 99 1005.4
20260505201104 55 0.0 0.0 0.01 0.50 0.50 99 1005.3
20260505200100 55 0.0 1.0 0.01 0.50 0.50 99 1005.4
20260505195057 55 243 0.0 3.0 0.01 0.50 0.50 99 1005.6
20260505193051 55 0.0 0.0 0.00 0.48 0.48 99 1005.7
20260505192047 55 270 0.0 2.0 0.00 0.48 0.48 99 1005.7
20260505191044 55 0.0 2.0 0.00 0.48 0.48 99 1005.6
20260505184034 55 0.0 0.0 0.01 0.48 0.48 99 1005.3
20260505183031 55 0.0 0.0 0.01 0.48 0.48 99 1005.3
20260505182028 55 180 0.0 2.0 0.01 0.48 0.48 99 1005.2
20260505181025 56 0.0 0.0 0.02 0.48 0.48 99 1005.1
20260505174016 55 0.0 2.0 0.09 0.47 0.47 99 1004.7
20260505172110 56 191 1.0 5.0 0.41 0.47 0.47 99 1004.6
20260505171106 56 274 1.0 4.0 0.45 0.46 0.46 99 1004.9
20260505170103 56 251 2.0 8.0 0.41 0.43 0.43 99 1005.1
20260505165100 56 261 2.0 8.0 0.39 0.40 0.40 99 1005.2
20260505164057 57 306 2.0 5.0 0.37 0.38 0.38 99 1005.3
20260505162050 60 221 3.0 10.0 0.05 0.06 0.06 95 1005.1
20260505161107 61 0.0 0.0 0.00 0.01 0.01 91 1004.2
20260505153035 63 0.0 2.0 0.00 0.01 0.01 87 1004.0
20260505151028 64 0 0.0 3.0 0.00 0.01 0.01 86 1004.0
20260505140106 74 0.0 2.0 0.00 0.01 0.01 57 1004.2
20260505124121 75 338 1.0 4.0 0.00 0.01 0.01 55 1005.1
20260505123038 76 249 0.0 3.0 0.00 0.01 0.01 54 1005.1
20260505122035 77 92 2.0 5.0 0.00 0.01 0.01 52 1005.3
20260505121031 76 113 1.0 3.0 0.00 0.01 0.01 52 1005.3
20260505120028 75 90 1.0 3.0 0.00 0.01 0.01 55 1005.4
20260505114022 74 0 1.0 3.0 0.00 0.01 0.01 59 1005.7
20260505113019 75 175 1.0 4.0 0.00 0.01 0.01 56 1005.7
20260505112016 74 52 1.0 4.0 0.00 0.01 0.01 57 1005.8
20260505111113 74 20 1.0 4.0 0.00 0.01 0.01 58 1006.0
20260505110110 73 37 1.0 3.0 0.00 0.01 0.01 57 1006.0
20260505101054 71 67 1.0 5.0 0.00 0.01 0.01 70 1006.6
20260505100051 69 55 0.0 3.0 0.00 0.01 0.01 72 1006.8
20260505095047 69 0 1.0 4.0 0.00 0.01 0.01 76 1006.9
20260505094044 69 90 0.0 3.0 0.00 0.01 0.01 75 1006.8
20260505093041 68 73 0.0 4.0 0.00 0.01 0.01 76 1006.9
20260505092037 68 80 1.0 4.0 0.00 0.01 0.01 78 1007.0
20260505090031 66 170 0.0 3.0 0.00 0.01 0.01 80 1007.2
20260505084025 65 144 2.0 6.0 0.00 0.01 0.01 82 1007.4
20260505083022 65 338 1.0 4.0 0.00 0.01 0.01 83 1007.5
20260505082022 64 113 0.0 3.0 0.00 0.01 0.01 84 1007.6
20260505081016 63 0.0 2.0 0.00 0.01 0.01 87 1007.7
20260505080113 62 0.0 0.0 0.00 0.01 0.01 89 1007.8
20260505075130 61 0 0.0 2.0 0.00 0.01 0.01 89 1008.0
20260505072100 61 0.0 2.0 0.00 0.01 0.01 90 1007.9
20260505071120 60 0 0.0 3.0 0.00 0.01 0.01 90 1008.0
20260505070054 60 0.0 0.0 0.00 0.01 0.01 93 1008.0
20260505065050 59 0.0 2.0 0.00 0.01 0.01 92 1008.0
20260505064047 59 0 0.0 2.0 0.00 0.01 0.01 93 1008.0
20260505063044 58 0.0 2.0 0.00 0.01 0.01 94 1007.9
20260505061038 56 0.0 0.0 0.00 0.01 0.01 98 1007.9
20260505060034 56 0.0 0.0 0.00 0.01 0.01 99 1007.9
20260505055052 56 0.0 0.0 0.00 0.01 0.01 99 1007.9
20260505054029 56 0.0 0.0 0.00 0.01 0.01 99 1008.0